Location: Beaurecueil
(43.5122°N, 5.5450°E)
Time: 16:41:15
(UTC+00:00)

ATLAS 3B R/B - Pass Details

Date: 18 September 2020
Orbit: 1016 x 1179 km, 63.8° (Epoch: 04 October)

Event Time Altitude Azimuth Distance (km) Brightness Sun altitude
Rises 21:22:30 0° 324° (NW) 3,836 6.6 -36.6°
Reaches altitude 10° 21:25:07 10° 326° (NW) 2,900 5.7 -36.9°
Enters shadow 21:30:03 50° 339° (NNW) 1,358 3.4 -37.5°
